CAPE
0 0 0 0 0 0 0 0 0 0 0 0 0 0 0 0 0 0 0 0 0 0 0 0 0 0 0 0 31 221 883 1405 1273 1074 908 665 519 352 117 89 88 49 51 95
0 0 0 0 0 0 0 0 0 0 0 0 0 0 0 0 0 0 0 0 0 0 0 0 0 0 0 0 47 356 687 1105 935 787 718 621 439 343 262 137 122 100 50 64
0 0 0 0 0 0 0 0 0 0 0 0 0 0 0 0 0 0 0 0 0 0 0 0 0 0 0 0 0 444 508 1195 454 351 749 649 451 282 201 136 184 189 44 86
0 0 0 0 0 0 0 0 4 4 6 3 5 0 0 0 0 0 0 0 0 0 0 0 0 0 0 0 40 375 820 1017 1122 684 473 345 543 455 268 218 195 173 6 33
0 0 0 0 0 0 0 1 0 0 0 0 0 1 0 0 0 0 0 0 0 0 0 0 0 0 0 0 9 300 511 688 708 693 600 601 661 447 295 265 178 183 122 135
0 0 0 0 0 0 2 0 0 0 0 0 0 0 0 0 0 0 0 0 0 0 0 0 0 0 0 0 0 402 545 433 766 648 633 574 400 332 326 228 244 182 305 366
0 0 0 0 0 0 0 1 1 0 0 0 0 0 0 0 0 0 0 0 0 0 0 0 0 0 0 0 0 439 867 578 785 840 639 536 362 327 143 408 411 348 224 258
0 0 0 0 0 0 0 0 0 0 0 1 0 0 0 0 0 0 0 0 0 0 0 0 0 0 0 0 0 210 816 1054 1009 931 1028 825 590 500 668 651 618 381 265 239
1 0 0 0 0 0 2 0 1 0 0 2 0 0 0 0 0 0 0 0 0 0 0 0 0 0 0 0 0 0 576 924 1181 1075 1197 1392 988 1001 1061 1003 782 443 345 273
3 1 0 0 0 0 0 3 0 0 0 0 2 0 0 0 0 0 0 0 0 0 0 0 0 0 0 0 0 0 146 893 1204 1288 919 1433 1405 1182 1293 1100 746 417 162 5
1 1 0 0 0 1 4 1 0 0 0 1 1 1 0 0 0 0 0 0 0 0 0 0 0 0 0 0 7 0 0 394 1125 1347 1214 751 1527 1542 1178 884 611 282 18 5
0 10 0 0 0 0 0 19 29 1 5 1 3 0 0 0 0 0 0 0 0 0 0 0 0 0 0 0 1 131 0 168 827 1439 1263 1029 1435 1764 1256 781 380 36 4 4
1 6 1 2 0 0 12 13 9 26 11 2 3 0 0 0 0 0 0 0 0 0 0 0 0 0 0 0 0 0 98 2 731 1356 1216 1291 1136 1579 1072 486 98 3 4 4
22 8 1 1 0 12 3 8 11 6 1 1 2 0 1 0 0 0 0 0 0 0 0 0 0 0 0 0 0 0 245 41 636 1290 1430 1608 1202 1292 654 88 4 4 4 3
11 3 8 5 4 4 6 12 8 2 1 0 0 0 0 0 1 4 4 0 0 0 0 0 0 0 0 0 0 0 119 585 730 1288 1522 1851 1468 743 181 4 4 4 3 3
1 1 2 1 0 8 2 0 0 0 0 0 3 3 9 10 4 1 1 2 0 0 0 0 0 0 0 0 0 0 0 986 1097 1396 1741 1764 961 387 47 4 5 4 4 4
2 3 0 0 0 0 0 0 0 0 0 0 0 0 3 0 2 3 1 0 0 0 0 0 0 0 0 0 0 0 0 1196 1531 1644 1911 1360 725 232 18 3 4 5 5 3
0 13 11 1 3 0 0 0 0 0 0 1 3 0 4 1 2 1 6 5 3 0 0 0 0 0 0 0 0 0 149 1353 1511 1611 1521 975 436 91 3 4 5 4 3 3
0 6 7 5 1 0 0 0 0 0 0 0 0 0 1 2 2 0 1 0 0 1 0 0 0 0 0 0 0 0 650 1727 1587 1515 970 569 227 68 5 4 3 2 3 2
0 0 3 0 4 2 0 0 0 0 0 0 1 1 2 1 5 0 0 0 0 0 0 0 0 0 0 0 0 0 835 1579 1184 1182 628 249 115 5 2 3 2 1 1 3
0 0 0 4 11 0 0 0 2 0 0 0 1 2 2 4 2 0 0 2 1 0 1 0 1 0 0 0 0 441 660 1206 850 498 166 11 2 2 2 2 2 3 3 2
0 0 2 6 6 1 10 0 0 0 0 1 1 2 4 4 5 5 1 1 1 2 0 0 0 0 0 38 250 398 742 514 150 6 2 2 2 2 2 2 3 4 3 0
0 0 5 6 0 3 20 1 3 2 0 1 1 1 5 7 2 1 4 2 1 0 0 0 0 0 13 212 304 164 24 48 10 3 4 3 3 2 2 3 4 5 0 0
2 0 1 4 0 9 0 2 2 2 1 1 1 1 4 3 0 1 4 2 0 0 0 0 0 1 1 2 1 0 1 0 0 4 3 1 2 3 1 2 3 5 0 0
0 1 0 0 1 0 0 0 2 3 2 3 2 4 1 13 17 14 3 0 0 0 0 1 3 2 3 4 3 3 3 0 2 2 2 2 1 1 1 1 2 0 0 0
0 0 0 0 0 0 0 1 2 2 2 3 2 3 2 1 0 0 0 0 0 2 2 3 4 4 3 2 2 2 2 2 2 1 2 2 2 3 2 2 1 0 0 0
CIN
-0 -0 -0 -0 -0 -0 -0 -0 -0 -0 -0 -0 -0 -0 -0 -0 -0 -0 -0 -0 -0 -0 -0 -0 -0 -0 -0 -0 -228 -120 -46 -17 -44 -71 -105 -161 -268 -239 -357 -340 -362 -379 -302 -250
-0 -0 -0 -0 -0 -0 -0 -0 -0 -0 -0 -0 -0 -0 -0 -0 -0 -0 -0 -0 -0 -0 -0 -0 -0 -0 -0 -0 -146 -113 -83 -31 -98 -130 -193 -191 -231 -293 -367 -366 -314 -311 -285 -214
-0 -0 -0 -0 -0 -0 -0 -0 -0 -0 -0 -0 -0 -0 -0 -0 -0 -0 -0 -0 -0 -0 -0 -0 -0 -0 -0 -0 -0 -102 -97 -9 -167 -281 -99 -230 -225 -292 -251 -296 -236 -280 -358 -235
-0 -0 -0 -0 -0 -0 -0 -0 -7 -1 -2 -1 -2 -0 -0 -0 -0 -0 -0 -0 -0 -0 -0 -0 -0 -0 -0 -0 -100 -107 -51 -19 -24 -99 -166 -215 -264 -217 -318 -284 -235 -234 -197 -280
-0 -0 -0 -0 -0 -0 -0 -7 -0 -0 -0 -0 -0 -1 -0 -0 -0 -0 -0 -0 -0 -0 -0 -0 -0 -0 -0 -0 -104 -109 -116 -97 -65 -87 -100 -78 -82 -131 -233 -216 -210 -170 -211 -149
-0 -0 -0 -0 -0 -0 -3 -0 -0 -0 -0 -0 -0 -0 -0 -0 -0 -0 -0 -0 -0 -0 -0 -0 -0 -0 -0 -0 -0 -111 -141 -187 -61 -77 -102 -76 -108 -122 -139 -119 -135 -142 -150 -90
-0 -0 -0 -0 -0 -0 -0 -0 -0 -0 -0 -0 -0 -0 -0 -0 -0 -0 -0 -0 -0 -0 -0 -0 -0 -0 -0 -0 -0 -172 -108 -173 -124 -12 -60 -60 -112 -79 -79 -113 -107 -121 -163 -146
-0 -0 -0 -0 -0 -0 -0 -2 -0 -0 -1 -2 -0 -0 -0 -0 -0 -0 -0 -0 -0 -0 -0 -0 -0 -0 -0 -0 -0 -224 -113 -89 -110 -38 -4 -72 -57 -27 -50 -78 -75 -161 -175 -155
-0 -0 -0 -0 -0 -0 -0 -0 -0 -0 -0 -0 -0 -0 -0 -0 -0 -0 -0 -0 -0 -0 -0 -0 -0 -0 -0 -0 -0 -0 -131 -99 -86 -79 -2 -5 -65 -43 -24 -29 -81 -143 -149 -119
-3 -0 -0 -0 -0 -0 -0 -5 -0 -0 -0 -0 -1 -0 -0 -0 -0 -0 -0 -0 -0 -0 -0 -0 -0 -0 -0 -0 -0 -0 -281 -109 -98 -78 -147 -0 -98 -64 -9 -19 -92 -135 -182 -0
-8 -2 -0 -0 -0 -2 -1 -2 -0 -0 -0 -0 -2 -3 -0 -0 -0 -0 -0 -0 -0 -0 -0 -0 -0 -0 -0 -0 -250 -0 -0 -217 -87 -57 -101 -132 -9 -58 -64 -43 -94 -191 -211 -0
-1 -2 -0 -0 -0 -0 -0 -0 -0 -0 -1 -0 -1 -0 -0 -0 -0 -0 -0 -0 -0 -0 -0 -0 -0 -0 -0 -0 -14 -258 -0 -278 -142 -72 -99 -141 -1 -6 -23 -99 -144 -270 -0 -0
-1 -1 -1 -2 -0 -0 -5 -1 -1 -0 -0 -0 -1 -0 -0 -0 -0 -0 -0 -0 -0 -0 -0 -0 -0 -0 -0 -0 -0 -0 -259 -173 -152 -71 -87 -82 -102 -0 -29 -145 -313 -0 -0 -0
-5 -2 -0 -0 -0 -0 -1 -0 -1 -3 -0 -1 -1 -1 -1 -0 -0 -0 -0 -0 -0 -0 -0 -0 -0 -0 -0 -0 -0 -0 -310 -407 -192 -65 -24 -18 -79 -15 -114 -252 -265 -0 -0 -0
-2 -0 -0 -0 -0 -0 -0 -0 -0 -3 -0 -0 -0 -0 -0 -0 -1 -2 -2 -0 -0 -0 -0 -0 -0 -0 -0 -0 -0 -0 -417 -225 -196 -73 -19 -0 -15 -103 -173 -28 -0 -0 -0 -0
-2 -1 -0 -0 -0 -1 -2 -0 -0 -0 -0 -0 -11 -1 -7 -2 -1 -2 -1 -1 -0 -0 -0 -0 -0 -0 -0 -0 -0 -0 -0 -113 -110 -58 -12 -4 -70 -174 -272 -0 -0 -0 -0 -0
-0 -0 -2 -0 -0 -1 -0 -0 -0 -0 -0 -0 -0 -0 -2 -0 -1 -0 -0 -0 -0 -0 -0 -0 -0 -0 -0 -0 -0 -0 -0 -48 -26 -16 -2 -17 -143 -234 -309 -0 -0 -0 -0 -0
-0 -3 -0 -0 -2 -0 -0 -0 -0 -0 -0 -0 -0 -0 -0 -0 -0 -0 -0 -0 -0 -1 -0 -0 -0 -0 -0 -0 -0 -0 -194 -28 -15 -1 -4 -67 -193 -312 -0 -0 -0 -0 -0 -0
-0 -5 -0 -0 -0 -0 -0 -0 -0 -0 -0 -0 -0 -0 -0 -0 -0 -0 -0 -0 -0 -0 -0 -0 -0 -0 -0 -0 -0 -0 -119 -1 -0 -0 -55 -153 -238 -367 -0 -0 -0 -0 -0 -0
-0 -0 -0 -1 -0 -2 -0 -0 -0 -0 -0 -0 -0 -0 -0 -0 -0 -0 -0 -0 -0 -0 -0 -0 -0 -0 -0 -0 -0 -0 -49 -0 -2 -5 -97 -266 -313 -324 -0 -0 -0 -0 -0 -0
-0 -0 -0 -1 -0 -1 -0 -2 -0 -0 -0 -0 -0 -0 -0 -0 -0 -0 -0 -0 -0 -0 -0 -0 -0 -0 -0 -0 -0 -125 -64 -0 -17 -59 -223 -225 -0 -0 -0 -0 -0 -0 -0 -0
-0 -0 -0 -1 -1 -1 -8 -0 -0 -0 -0 -0 -0 -0 -0 -0 -0 -0 -0 -0 -0 -0 -0 -0 -0 -0 -0 -146 -141 -93 -8 -34 -125 -68 -0 -0 -0 -0 -0 -0 -0 -0 -0 -0
-0 -8 -0 -1 -0 -7 -2 -0 -0 -0 -0 -0 -0 -0 -0 -0 -0 -0 -0 -0 -0 -0 -0 -0 -0 -0 -178 -100 -97 -112 -130 -156 -31 -0 -0 -0 -0 -0 -0 -0 -0 -0 -0 -0
-2 -0 -0 -0 -0 -14 -0 -0 -0 -0 -0 -0 -0 -0 -0 -0 -0 -0 -0 -0 -0 -0 -0 -0 -0 -0 -0 -0 -0 -0 -0 -0 -0 -0 -0 -0 -0 -0 -0 -0 -0 -0 -0 -0
-0 -1 -6 -0 -6 -0 -0 -0 -0 -0 -0 -0 -0 -0 -0 -11 -1 -0 -0 -0 -0 -0 -0 -0 -0 -0 -0 -0 -0 -0 -0 -0 -0 -0 -0 -0 -0 -0 -0 -0 -0 -0 -0 -0
-0 -0 -0 -0 -0 -0 -0 -0 -0 -0 -0 -0 -0 -0 -0 -0 -0 -0 -0 -0 -0 -7 -0 -0 -0 -0 -0 -0 -0 -0 -0 -0 -0 -0 -0 -0 -0 -0 -0 -0 -0 -0 -0 -0
Wind_Speed
25 31 35 40 37 40 44 49 54 53 45 50 53 56 52 44 43 41 41 39 38 38 35 34 32 30 28 27 28 28 29 28 27 26 28 25 24 22 24 29 26 24 23 20
28 29 30 30 39 41 41 46 51 49 40 41 48 54 51 44 45 45 45 43 39 37 35 37 32 30 30 27 27 29 32 31 30 29 26 26 25 24 28 30 27 26 24 21
26 23 29 35 43 43 39 41 43 44 43 37 42 56 47 42 38 40 42 40 40 39 36 35 34 32 32 28 28 28 32 33 32 35 33 28 22 29 28 32 27 24 23 22
23 24 32 39 36 28 38 30 32 39 41 40 31 52 42 42 40 34 34 35 36 36 35 34 35 35 35 34 27 26 31 33 32 35 34 38 37 32 30 33 26 24 21 21
26 29 35 35 27 27 29 29 38 38 38 42 34 39 36 32 33 33 31 32 31 31 33 35 35 35 38 35 29 25 25 32 30 29 32 34 36 34 37 31 27 24 21 23
22 23 25 24 24 23 22 33 39 31 27 28 36 24 36 28 25 24 20 19 20 23 28 31 31 27 28 33 29 20 22 25 31 27 28 33 35 37 37 29 27 24 21 21
33 25 23 20 28 21 18 34 31 26 26 29 26 31 37 36 35 32 31 29 23 23 25 27 27 26 27 28 28 23 16 19 24 33 32 31 41 41 40 28 27 24 22 20
34 34 31 24 29 21 10 16 21 30 31 38 15 33 29 30 31 31 32 29 20 20 22 27 29 29 28 30 28 28 22 19 19 31 33 28 29 36 28 28 27 25 22 19
35 26 25 24 22 20 21 19 22 21 21 36 24 26 37 24 19 18 18 17 16 17 20 22 23 27 30 32 32 29 35 30 17 24 34 34 23 27 25 20 20 20 18 18
28 35 28 28 27 18 8 20 24 18 31 35 31 34 34 32 31 20 18 18 15 16 19 20 21 23 24 29 35 33 33 34 30 22 35 37 29 27 23 24 22 19 18 17
29 25 24 29 25 23 19 19 19 21 16 29 31 31 26 31 30 29 30 22 22 22 23 23 23 25 26 26 30 34 33 36 31 27 36 40 34 31 27 25 26 21 18 18
26 26 25 17 18 27 6 13 21 13 17 14 36 38 36 36 37 31 29 25 25 28 28 29 28 27 28 28 29 31 34 36 36 34 29 37 34 31 31 26 28 23 19 17
29 24 31 27 23 22 19 26 27 11 16 33 33 40 32 32 34 34 35 35 33 33 34 33 33 32 31 30 31 31 33 36 34 35 33 38 35 35 33 28 27 21 19 16
21 18 14 16 20 28 31 31 30 16 15 21 28 48 52 51 54 55 56 52 48 45 40 39 39 38 36 34 33 33 34 36 34 34 29 39 38 41 27 25 23 21 18 16
20 17 11 16 15 20 26 27 29 15 18 23 36 44 53 54 55 52 50 52 54 54 50 49 44 43 42 39 35 33 33 33 35 36 31 33 37 32 26 24 22 20 19 17
19 14 12 23 21 19 25 18 10 13 20 24 28 32 41 47 43 48 56 60 60 57 54 47 42 43 42 41 38 34 35 36 34 37 29 30 35 33 29 24 21 20 19 18
15 18 22 31 37 34 5 15 20 20 22 22 22 28 48 52 50 50 51 52 54 52 53 48 47 46 46 43 38 39 36 36 33 31 27 26 31 31 29 26 21 21 20 15
17 16 9 24 31 5 24 23 23 17 23 20 20 22 22 36 52 54 51 54 57 55 52 51 48 46 44 44 40 38 38 40 32 32 29 25 31 34 30 28 22 22 19 16
12 18 23 5 21 22 10 24 29 23 34 17 15 26 25 37 40 45 46 44 47 49 52 53 52 50 46 44 40 39 40 40 33 31 29 28 29 33 32 30 26 22 19 16
21 17 5 14 15 12 21 26 28 28 21 19 26 29 28 36 35 30 42 37 36 33 37 40 44 43 43 43 39 40 39 39 33 30 29 28 28 34 32 30 26 20 18 17
32 28 5 12 11 8 21 33 39 22 25 28 27 24 25 25 28 30 37 36 34 39 29 30 33 39 39 37 37 37 36 32 27 27 29 29 30 34 33 29 26 22 19 18
31 25 11 7 16 13 24 32 26 24 27 25 31 23 21 25 27 24 27 27 31 35 38 35 33 32 33 35 33 30 25 24 24 26 30 29 33 34 33 29 25 22 21 19
19 17 8 5 15 24 24 20 22 23 24 25 20 24 15 17 13 9 11 18 28 33 33 30 28 25 19 15 12 12 21 23 23 26 28 34 36 35 32 29 26 24 22 22
19 22 6 16 12 23 25 22 23 21 23 20 13 10 8 7 5 5 15 22 27 31 32 27 25 12 9 8 10 15 19 22 23 30 38 41 35 34 31 29 26 25 23 22
9 21 7 18 22 29 17 23 21 23 20 17 18 13 3 10 8 11 15 22 27 27 29 30 8 7 15 13 14 15 19 25 27 35 37 37 33 32 30 27 24 22 17 25
17 12 23 26 30 20 21 20 19 21 21 18 16 10 5 22 17 13 13 15 18 22 26 23 18 15 18 19 21 18 17 25 27 32 25 36 34 33 30 29 20 19 24 21
Wind_Direction
357 337 326 322 320 314 308 302 297 297 303 296 290 286 288 290 285 280 278 276 273 272 271 272 274 272 267 260 252 247 243 238 232 231 227 231 237 243 242 244 248 247 247 246
352 340 339 333 325 319 314 308 302 301 307 303 296 287 288 288 284 280 275 272 270 270 269 265 267 269 267 261 255 249 245 242 233 232 227 245 242 246 242 242 245 247 246 245
351 347 341 335 325 320 319 314 311 307 308 308 302 286 290 288 288 281 271 268 266 265 265 262 261 262 262 262 258 251 247 245 239 235 239 245 236 236 239 239 242 243 244 245
2 355 341 333 331 336 325 330 323 313 308 305 317 288 293 287 286 281 272 267 264 262 261 259 258 258 257 259 261 258 250 245 246 239 240 240 239 242 239 236 238 240 239 240
359 350 341 339 341 343 334 332 320 315 307 301 306 295 295 299 289 280 275 268 265 265 260 258 258 259 255 257 261 260 254 246 245 244 243 240 238 238 232 235 236 238 237 240
351 353 354 354 350 348 344 332 317 324 323 315 307 304 290 298 293 284 281 289 282 271 268 263 262 263 259 255 257 259 254 247 243 241 237 234 232 232 230 228 230 231 231 234
355 7 3 5 353 354 353 335 333 333 328 318 328 314 272 275 273 270 272 283 292 286 275 268 269 265 260 253 251 255 243 241 242 239 236 234 232 234 231 225 228 227 229 232
358 353 357 360 345 340 299 347 342 325 322 297 268 303 294 299 284 281 279 282 292 297 289 278 271 266 260 256 252 250 248 242 235 239 236 233 221 230 228 228 230 229 230 229
353 350 340 345 353 355 348 344 342 332 325 302 326 324 302 318 301 306 315 314 299 297 295 292 282 269 262 256 255 251 249 250 225 240 236 231 217 227 227 221 223 223 227 230
353 339 356 358 349 354 337 342 341 341 322 311 316 307 288 285 264 285 309 316 320 301 296 294 284 277 272 261 255 254 250 249 247 243 237 235 226 223 223 227 220 219 226 227
349 351 344 350 358 344 341 340 338 334 330 263 263 277 277 271 262 271 294 300 290 289 286 289 285 279 275 272 261 255 252 247 245 245 239 234 235 230 223 224 224 228 230 218
356 347 336 326 343 333 329 337 336 281 249 245 260 252 264 261 270 286 290 292 289 282 283 278 279 283 278 273 267 261 252 248 245 243 243 232 227 227 226 224 226 226 222 215
350 352 343 337 0 351 343 332 332 286 261 253 249 254 303 283 284 281 286 285 290 285 278 280 276 275 275 274 269 263 256 247 245 240 242 235 225 229 227 223 220 216 210 209
347 344 335 327 282 276 273 269 268 266 304 269 252 264 281 282 276 276 273 275 278 279 280 278 274 271 272 269 269 266 259 247 241 238 237 230 224 223 219 217 208 204 202 197
355 340 312 321 301 280 271 271 270 270 271 262 265 265 281 287 287 287 284 280 276 273 273 272 273 268 267 264 265 263 259 249 238 234 232 226 223 217 215 212 207 202 195 183
353 348 327 282 279 279 279 268 283 326 327 312 295 281 310 304 302 291 282 277 272 271 269 268 268 264 260 258 258 260 255 246 235 229 226 223 216 213 216 211 203 190 186 178
357 358 287 286 300 291 288 7 351 337 331 317 293 308 314 301 298 293 287 279 272 272 267 263 261 259 255 253 254 251 251 243 230 224 216 211 211 207 207 207 199 181 182 179
6 2 349 281 294 312 355 355 351 331 330 319 306 311 314 301 291 291 291 278 265 263 259 253 253 255 253 246 249 247 243 231 225 220 211 201 208 207 205 205 192 183 179 172
13 7 283 329 284 280 329 9 357 325 301 341 347 342 303 283 279 275 278 273 261 252 247 239 242 238 239 236 238 240 233 226 220 214 207 199 199 200 199 201 189 183 177 168
15 2 355 280 283 298 6 2 352 347 315 3 337 308 299 290 280 272 295 281 274 260 244 236 225 226 227 225 229 227 226 221 215 204 201 193 189 193 193 189 183 180 173 160
354 358 325 284 293 316 7 351 349 354 337 314 307 317 301 294 278 277 265 252 239 225 235 221 221 216 218 223 226 226 227 216 204 197 196 192 189 191 188 183 178 172 166 160
339 323 20 340 288 291 329 310 356 333 315 315 293 305 302 297 292 275 253 226 214 202 203 209 213 213 218 221 226 228 214 195 191 182 192 189 187 185 183 175 175 168 167 160
350 9 286 295 283 299 315 331 341 338 319 313 307 291 301 302 289 273 206 191 180 186 196 205 207 212 215 221 186 175 191 184 187 186 187 189 183 182 180 174 172 167 155 152
5 360 352 285 331 306 313 357 348 339 331 318 312 289 300 272 235 212 167 169 171 174 181 194 200 195 195 192 169 154 169 181 190 195 194 188 182 177 179 173 172 164 162 161
300 314 302 284 296 303 339 318 331 328 334 331 306 293 318 141 141 149 158 162 163 171 178 183 152 170 201 198 186 170 170 183 185 180 182 183 179 174 171 169 170 162 168 171
16 358 282 290 302 306 319 327 334 340 328 326 328 322 307 121 140 160 162 170 175 171 172 182 185 189 187 179 177 171 161 171 170 177 166 177 170 171 168 152 153 150 162 163